Location: Cella
(44.7333°N, 10.5667°E)
Time: 14:25:44
(UTC+00:00)

H-2A R/B - Pass Details

Date: 03 March 2021
Orbit: 732 x 837 km, 98.2° (Epoch: 23 April)

Event Time Altitude Azimuth Distance (km) Brightness Sun altitude
Rises 17:59:41 0° 168° (SSE) 3,361 5.2 -9.9°
Reaches altitude 10° 18:02:01 10° 169° (S) 2,438 4.5 -10.3°
Maximum altitude 18:07:27 81° 256° (WSW) 853 2.3 -11.3°
Drops below altitude 10° 18:12:57 10° 345° (NNW) 2,456 4.9 -12.3°
Sets 18:15:19 0° 346° (NNW) 3,388 5.6 -12.7°
